Terug naar catalogus

FENGYUN 1C DEB

ActiefSSO
NORAD 33747·DEBRIS·🇨🇳 China

Gelanceerd May 10, 1999 vanaf Taiyuan Satellite Launch Center

Loading…

Volgende Passages (komende 24 uur)

TLE

VersSource: Space-Track

Epoch: Sep 11, 2026, 17:52 UTC

1 33747U 99025DJL 26254.74467705  .00003076  00000-0  14260-2 0  9999
2 33747  99.0968   1.2847 0088712 163.2178 197.1965 14.19440747940038

Volg FENGYUN 1C DEB in realtime met AllMySat

Download on the App Store